www.pogodaiklimat.ru

Погода и климат >> Архив погоды >> Оман >> Khasab


ПОГОДА в Khasab

  • Прогноз погоды в Khasab
  • Монитор погоды в Khasab
  • Климат города

АРХИВ ПОГОДЫ в Khasab

Время (UTC), дата Ветер
(напр.,м/с)
 
Видим.   Явления Облачность Т
(С)
Тd
(С)
f
(%)
Тe
(С)
Тes
(С)
Комфортность P
(гПа)
Po
(гПа)
Тmin
(С)
Tmax
(С)
R
(мм)
R24
(мм)
S
(см)
03 16.07 С 1 н/о н/о +31.5 +28.2 83 +52 +52 опасность
перегрева
993.7 992.3
06 16.07 З 2 н/о н/о +33.1 +26.3 68 +50 +50 опасность
перегрева
994.2 992.9 +31.0
09 16.07 С 2 н/о н/о +34.7 +28.1 69 +56 +56 опасность
перегрева
993.7 992.3
12 16.07 СЗ 2 н/о н/о +33.0 +28.7 78 +55 +55 опасность
перегрева
992.0 990.7
15 16.07 СВ 4 н/о н/о +33.1 +27.7 73 +53 +53 опасность
перегрева
992.4 991.1
18 16.07 штиль 0 н/о н/о +32.4 +27.3 75 +51 +51 опасность
перегрева
993.6 992.2 +35.4
21 16.07 СВ 1 н/о н/о +32.6 +26.9 72 +50 +50 опасность
перегрева
993.4 992.1
00 17.07 В 4 н/о н/о +32.8 +27.0 72 +51 +51 опасность
перегрева
993.3 991.9
03 17.07 В 7 н/о н/о +32.9 +26.5 69 +50 +50 опасность
перегрева
994.5 993.1
06 17.07 В 6 н/о н/о +34.3 +26.2 63 +51 +51 опасность
перегрева
995.2 993.9 +32.0
09 17.07 СВ 4 н/о н/о +35.9 +25.7 56 +51 +51 опасность
перегрева
994.7 993.3
21 17.07 С 3 н/о н/о +32.5 +27.5 75 +52 +52 опасность
перегрева
995.1 993.8
00 18.07 СВ 2 н/о н/о +31.8 +27.4 78 +51 +51 опасность
перегрева
995.3 993.9
03 18.07 В 3 н/о н/о +32.8 +26.6 70 +50 +50 опасность
перегрева
997.0 995.6
06 18.07 СЗ 3 н/о н/о +33.9 +26.1 64 +50 +50 опасность
перегрева
997.8 996.4 +31.6
09 18.07 С 3 н/о н/о +33.6 +26.8 68 +51 +51 опасность
перегрева
997.3 996.0
12 18.07 С 3 н/о н/о +33.3 +26.8 69 +51 +51 опасность
перегрева
995.8 994.4
15 18.07 СВ 2 н/о н/о +33.0 +27.4 73 +52 +52 опасность
перегрева
996.3 995.0
18 18.07 СВ 1 н/о н/о +32.2 +27.3 75 +51 +51 опасность
перегрева
997.6 996.2 +35.2
21 18.07 СВ 1 н/о н/о +31.9 +27.0 75 +50 +50 опасность
перегрева
997.8 996.4
00 19.07 С 2 н/о н/о +31.8 +28.0 80 +52 +52 опасность
перегрева
997.7 996.3
03 19.07 СВ 2 н/о н/о +31.8 +27.9 80 +52 +52 опасность
перегрева
999.0 997.6
06 19.07 С 2 н/о н/о +33.6 +28.0 73 +55 +55 опасность
перегрева
999.4 998.0 +31.5
09 19.07 СЗ 5 н/о н/о +33.9 +27.4 69 +53 +53 опасность
перегрева
998.0 996.6
12 19.07 С 5 н/о н/о +33.8 +27.5 70 +53 +53 опасность
перегрева
996.5 995.2
15 19.07 ЮЗ 4 н/о н/о +35.0 +25.9 59 +50 +50 опасность
перегрева
996.3 994.9
18 19.07 ЮЗ 4 н/о н/о +34.4 +23.8 54 +46 +46 опасность
перегрева
997.2 995.8 +35.6
21 19.07 СВ 1 н/о н/о +32.8 +28.0 76 +53 +53 опасность
перегрева
996.5 995.1
00 20.07 Ю 1 н/о н/о +33.4 +22.3 52 +42 +42 опасность
перегрева
995.8 994.5
03 20.07 В 3 н/о н/о +32.5 +25.5 67 +47 +47 опасность
перегрева
996.9 995.5
06 20.07 СВ 3 н/о н/о +35.2 +24.2 53 +47 +47 опасность
перегрева
997.2 995.8 +32.0
09 20.07 В 2 н/о н/о +39.7 +16.9 26 +38 +38 очень
жарко
996.1 994.7
12 20.07 ЮЗ 3 н/о н/о +40.4 +12.6 19 +40 +40 очень
жарко
994.8 993.4
15 20.07 СВ 3 н/о н/о +35.3 +20.3 42 +42 +42 опасность
перегрева
994.7 993.3
18 20.07 СВ 2 н/о н/о +34.8 +18.9 39 +40 +40 очень
душно
996.2 994.9 +40.6
21 20.07 СЗ 2 н/о н/о +34.5 +24.0 54 +46 +46 опасность
перегрева
995.4 994.1
00 21.07 штиль 0 н/о н/о +31.6 +27.8 80 +51 +51 опасность
перегрева
995.4 994.0
03 21.07 СЗ 2 н/о н/о +31.8 +26.7 74 +49 +49 опасность
перегрева
996.5 995.2
06 21.07 С 1 н/о н/о +32.8 +26.1 68 +49 +49 опасность
перегрева
997.5 996.1 +30.8
09 21.07 СЗ 2 н/о н/о +34.6 +24.8 57 +48 +48 опасность
перегрева
996.8 995.5
12 21.07 СЗ 1 н/о н/о +35.4 +24.7 54 +48 +48 опасность
перегрева
995.6 994.2
03 22.07 ЮВ 3 н/о н/о +36.0 +13.6 26 +36 +36 очень
жарко
995.8 994.5
06 22.07 ЮВ 2 н/о н/о +41.1 +10.7 16 +40 +40 очень
жарко
996.0 994.6 +34.7
09 22.07 СЗ 3 н/о н/о +37.1 +22.5 43 +46 +46 опасность
перегрева
994.9 993.6
12 22.07 СЗ 2 н/о н/о +35.4 +28.3 67 +57 +57 опасность
перегрева
993.9 992.5
15 22.07 СЗ 1 н/о н/о +35.1 +24.5 54 +48 +48 опасность
перегрева
994.0 992.7
18 22.07 СЗ 1 н/о н/о +35.4 +20.5 42 +42 +42 опасность
перегрева
995.3 993.9 +43.5
21 22.07 СВ 1 н/о н/о +35.3 +20.3 42 +42 +42 опасность
перегрева
994.8 993.4
00 23.07 нст 1 н/о н/о +33.9 +24.1 57 +46 +46 опасность
перегрева
993.9 992.5

 

Местоположение метеостанции Khasab (Оман): широта 26.21 долгота 56.24 высота над уровнем моря 4 м.

В архиве по умолчанию представлена погода в Khasab за последнюю неделю. Архивные данные за месяц целиком и за предыдущие месяцы, начиная с января 2011 года, Вы можете получить, выбрав интересующий диапазон дат из раскрывающегося списка и нажав кнопку "Ввод!".


*Определитесь, кто Вы:
робот инопланетянин человек

Внимание! Время в таблицах - всемирное. Для получения местного времени необходимо прибавить поправку, которая в Khasab равна 4 ч.

Смотрите также архив погоды в соседних городах и на ближайших метеорологических станциях:

Погода в Khasab Airport (Оман) (5 км)
Погода в Diba (Оман) (66 км)
Погода в Ras Al Khaimah Int Airport (ОАЭ) (73 км)
Погода в Bandarabbass (Иран) (113 км)
Погода в Sharjah (ОАЭ) (122 км)
Погода в Fujairah (ОАЭ) (124 км)
Погода в Dubai (ОАЭ) (140 км)
Погода в Bandar Lengeh (Иран) (146 км)
Погода в Abu Musa Island (Иран) (147 км)
Погода в Jask (Иран) (166 км)

Пояснения к столбцам:

Ветер - указаны скорость ветра в м/с - средняя за 10 мин, порывы в срок и между сроками (в фигурных скобках) и направление, откуда дует ветер: С - северный, СВ - северо-восточный, В - восточный, ЮВ - юго-восточный, Ю - южный, ЮЗ - юго-западный, З - западный, СЗ - северо-западный.
Видимость - горизонтальная дальность видимости в метрах или километрах. При видимости от 1 до 10 км при отсутствии осадков обычно наблюдается дымка, при ухудшении видимости до 1 км и менее - туман. В сухую погоду видимость может ухудшаться дымом, пылью или мглою.
Явления - указаны атмосферные явления, наблюдавшиеся в срок или в последний час перед сроком; фигурными скобками обозначены явления, наблюдавшиеся между сроками (за 1-3 часа до срока); квадратными скобками обозначены град или гололедные отложения с указанием их диаметра в мм.
Облачность - указаны через наклонную черту общая и нижняя облачность в баллах и высота нижней границы облаков в метрах; квадратными скобками обозначены формы облаков: Ci - перистые, Cs - перисто-слоистые, Cc - перисто-кучевые, Ac - высококучевые, As - высокослоистые, Sc - слоисто-кучевые, Ns - слоисто-дождевые, Cu - кучевые, Cb - кучево-дождевые. Подробнее классификацию облаков см. в Атласе облаков (PDF).
T - Температура воздуха - температура, измеренная на высоте 2 м над землей.
Td - Температура точки росы - температура, при понижении до которой содержащийся в воздухе водяной пар достигнет насыщения.
f - Относительная влажность воздуха - влажноcть воздуха, измеренная на высоте 2 м над землей.
Te - Эффективная температура - температура, которую ощущает одетый по сезону человек в тени. Характеристика душности погоды. При расчете учитывается влияние влажности воздуха и скорости ветра на теплоощущения человека.
Tes - Эффективная температура на солнце - температура, которую ощущает человек, с поправкой на солнечный нагрев. Характеристика знойности погоды. Зависит от высоты солнца над горизонтом, облачности и скорости ветра. Ночью, в пасмурную погоду, а также при ветре 12 м/с и более поправка равна нулю.
P - Атмосферное давление - приведенное к уровню моря атмосферное давление.
Po - Атмосферное давление - измеренное на уровне метеостанции атмосферное давление.
Tmin - Минимальная температура - минимум температуры воздуха на высоте 2 м над землей.
Tmax - Максимальная температура - максимум температуры воздуха на высоте 2 м над землей.
R - Количество осадков - Количество выпавших осадков за период времени, мм. При наведении курсора мыши на число - период времени, за который выпало указанное количество осадков.
R24 - Количество осадков - Количество выпавших осадков за 24 часа, мм.
S - Снежный покров - Высота снежного покрова, см. При наведении курсора мыши на число - состояние снежного покрова и степень покрытия местности в баллах.